{"data":{"norad_id":63090,"epoch":"2026-09-21T21:44:13.697376Z","epoch_age_seconds":40847,"freshness":"FRESH","line1":"1 63090U 25037P   26264.90571409  .00009126  00000+0  32134-3 0  9993","line2":"2 63090  70.0019 217.3251 0002291 265.1238  94.9675 15.29601037 87918","mean_motion":15.29601037,"eccentricity":0.0002291,"inclination_deg":70.0019,"raan_deg":217.3251,"arg_perigee_deg":265.1238,"mean_anomaly_deg":94.9675,"bstar":0.00032134,"rev_number":8791,"period_min":94.142195590052,"perigee_km":475.43353571897,"apogee_km":478.57456134741,"semimajor_km":6855.1410485332,"source":"CELESTRAK","updated_at":"2026-09-22T09:00:49.760232Z"}}